Location: Krakow
(50.0830°N, 19.9170°E)
Time: 16:34:38
(UTC+01:00)

Transit 2A Rocket - Pass Details

Date: 19 December 2023
Orbit: 590 x 905 km, 66.7° (Epoch: 03 March)

Event Time Altitude Azimuth Distance (km) Brightness Sun altitude
Rises 17:38:26 0° 212° (SSW) 2,964 8.8 -17.9°
Reaches altitude 10° 17:40:46 10° 211° (SSW) 2,017 7.8 -18.3°
Maximum altitude 17:45:16 81° 125° (SE) 623 4.4 -19.0°
Enters shadow 17:46:48 40° 43° (NE) 895 4.9 -19.2°
